{"data":{"norad_id":64585,"epoch":"2026-09-21T22:32:17.784672Z","epoch_age_seconds":53247,"freshness":"FRESH","line1":"1 64585U 25135BK  26264.93909473  .00001175  00000+0  12161-3 0  9995","line2":"2 64585  97.7841  18.2240 0002102  74.3130 285.8321 14.91960254 68325","mean_motion":14.91960254,"eccentricity":0.0002102,"inclination_deg":97.7841,"raan_deg":18.224,"arg_perigee_deg":74.313,"mean_anomaly_deg":285.8321,"bstar":0.00012161,"rev_number":6832,"period_min":96.517316472695,"perigee_km":590.35876761294,"apogee_km":593.2889391557,"semimajor_km":6969.9608533843,"source":"CELESTRAK","updated_at":"2026-09-22T09:00:29.855254Z"}}